Location: Recife
(8.0585°S, 34.8848°W)
Time: 12:57:31
(UTC-03:00)

Vanguard 1 Rocket - Pass Details

Date: 17 April 2026
Orbit: 655 x 4212 km, 34.3° (Epoch: 12 May)

Event Time Altitude Azimuth Distance (km) Brightness Sun altitude
Rises 18:54:37 0° 256° (WSW) 6,254 12.8 -24.8°
Reaches altitude 10° 18:58:32 10° 263° (W) 5,660 12.4 -25.8°
Maximum altitude 19:15:58 41° 327° (NNW) 4,881 11.2 -30.1°
Drops below altitude 10° 19:39:31 10° 30° (NNE) 7,310 11.8 -35.9°
Sets 19:45:48 0° 37° (NE) 8,130 12.0 -37.4°
